Probability
0 0 0 0 0 0 0 0 0 2 9 20 30 41 52 56 56 57 61 64 65 65 64 61 55 50 47 41 34 31 29 25 22 20 18 18 18 18 17 16 16 14 13 12
0 0 0 0 0 0 0 1 1 5 13 25 36 48 56 59 60 62 65 66 66 64 62 59 55 49 45 41 37 35 30 24 19 17 16 16 16 16 15 14 13 12 11 10
0 0 0 0 0 0 1 3 5 10 18 29 41 52 62 66 66 67 70 69 66 65 61 57 53 48 44 40 38 37 31 22 16 14 14 13 12 12 12 11 10 11 10 8
0 0 0 0 0 1 3 8 13 19 24 31 41 52 62 68 70 73 74 72 68 64 59 54 51 47 42 38 37 36 30 21 15 14 13 12 10 9 10 10 10 10 9 7
1 0 0 1 1 1 5 12 21 27 30 32 37 47 57 64 69 75 76 72 68 62 55 50 48 46 42 38 36 34 28 20 16 15 14 12 10 9 9 11 12 10 8 6
1 0 1 3 4 3 6 18 29 35 37 37 39 47 59 67 70 73 73 69 65 61 55 51 49 46 44 40 36 31 25 18 15 15 13 11 9 8 9 11 11 8 5 4
2 1 4 9 9 10 19 32 42 45 46 49 52 60 70 75 75 73 70 66 63 60 57 53 50 47 43 38 32 26 20 15 12 11 9 6 6 6 8 9 8 6 4 3
6 7 16 25 25 29 42 52 54 53 54 58 63 70 78 80 78 74 69 64 60 57 54 50 46 42 36 30 24 19 14 9 7 6 3 2 2 3 4 5 5 3 2 1
18 22 34 43 44 47 54 57 54 51 53 57 61 69 77 79 75 70 65 59 54 50 45 41 38 33 26 21 16 13 10 6 2 1 1 0 1 1 1 1 1 1 1 0
31 34 42 47 47 47 47 48 46 45 46 49 56 65 73 73 69 64 58 51 47 43 38 33 30 24 18 14 11 9 6 3 1 0 0 0 0 0 0 0 0 0 0 0
34 36 39 40 39 37 37 41 43 42 42 45 53 62 66 64 60 56 51 46 43 39 33 27 23 17 12 10 9 7 4 2 0 0 0 0 0 0 0 0 0 0 0 0
31 33 36 36 33 31 31 35 41 43 42 44 50 57 59 55 51 48 43 37 35 31 25 20 15 11 8 7 8 6 4 2 1 0 0 0 0 0 0 0 0 0 0 0
28 28 30 30 29 28 28 29 34 39 39 41 46 51 51 46 41 37 32 27 23 19 16 12 9 7 6 6 7 7 5 2 1 1 1 0 0 0 0 0 0 0 0 0
20 20 22 23 24 25 25 24 28 33 35 38 42 44 42 37 32 28 23 18 14 11 9 8 5 3 3 3 5 6 5 2 1 2 2 1 0 0 0 0 0 0 0 0
11 13 16 18 18 20 21 22 25 29 33 36 37 34 31 28 24 21 16 12 9 7 6 5 3 1 1 1 2 4 4 2 2 3 3 1 0 0 0 0 0 0 0 0
8 9 13 14 13 14 16 18 22 25 28 31 29 25 22 20 18 15 10 7 5 4 4 3 1 0 0 0 1 2 3 2 2 3 3 2 1 0 0 0 0 0 0 0
6 7 10 12 11 11 12 15 17 19 21 23 22 19 17 15 14 10 6 2 1 1 2 2 1 0 0 0 0 1 2 2 2 3 3 2 1 0 0 0 0 0 0 0
4 5 8 11 11 10 11 13 15 15 16 18 19 17 15 14 11 7 2 0 0 0 1 1 0 0 0 0 0 1 3 3 3 3 3 2 1 0 0 0 0 0 0 0
2 4 7 10 11 11 11 13 15 15 14 15 16 16 14 12 9 3 1 0 0 0 0 1 1 0 0 0 1 2 3 3 3 3 3 2 1 1 1 0 0 0 0 0
1 3 6 8 10 11 11 12 12 12 11 11 13 15 14 11 6 2 0 0 0 0 0 1 1 1 0 0 1 2 3 3 3 3 3 2 1 1 1 0 0 0 0 0
2 4 6 8 9 9 8 7 6 7 8 9 10 12 12 8 4 1 0 0 0 0 0 1 1 1 1 0 1 2 2 2 2 2 2 2 1 1 1 0 0 0 0 0
7 7 7 8 7 6 4 3 3 5 7 7 8 8 8 6 3 1 0 0 0 0 0 0 0 0 0 0 0 1 1 1 1 1 1 1 0 0 0 0 0 0 0 0
11 11 9 9 9 7 5 5 5 6 8 8 8 8 7 5 3 1 0 0 0 0 0 0 0 0 0 0 0 0 0 0 0 0 0 0 0 0 0 0 0 0 0 0
13 12 12 13 13 11 8 8 8 8 7 7 7 7 6 5 3 2 1 0 0 0 0 0 0 0 0 0 0 0 0 0 0 0 0 0 0 0 0 0 0 0 0 0
13 13 14 16 15 12 9 8 8 7 4 3 3 4 4 3 2 2 1 0 0 0 0 0 0 0 0 0 0 0 0 0 0 0 0 0 0 0 0 0 0 0 0 0
10 12 14 15 12 7 4 5 5 4 1 1 0 1 1 1 1 1 1 0 0 0 0 0 0 0 0 0 0 0 0 0 0 0 0 0 0 0 0 0 0 0 0 0
7 9 13 12 8 4 2 2 2 2 0 0 0 0 0 0 0 0 1 0 0 0 0 0 0 0 0 0 0 0 0 0 0 0 0 0 0 0 0 0 0 0 0 0
Wind_Speed
14 13 13 14 15 16 15 13 10 7 5 7 7 8 10 11 11 11 11 11 11 10 9 9 9 8 7 7 7 6 6 6 6 5 5 5 5 5 5 5 5 5 5 5
15 15 14 13 15 15 15 13 11 9 4 3 8 9 10 10 10 11 10 10 11 11 10 9 9 8 8 7 7 6 6 6 6 5 5 5 5 5 5 5 5 6 6 6
12 14 14 15 13 13 12 12 11 9 5 5 7 9 10 10 9 9 11 11 11 10 10 9 8 8 8 7 7 7 6 6 6 6 5 5 6 6 6 6 6 6 6 6
11 11 15 11 10 11 11 7 5 3 2 5 8 9 9 9 9 9 9 11 10 9 10 9 9 8 7 8 7 7 7 6 6 5 6 6 6 6 6 5 6 5 6 6
10 12 13 10 9 10 9 4 2 2 4 6 8 11 9 8 8 9 9 9 10 10 10 10 10 9 8 8 7 7 7 6 6 6 6 6 6 5 5 5 5 6 6 6
9 10 11 7 6 6 7 5 2 2 3 5 6 5 6 9 10 10 10 9 9 10 10 9 9 9 8 8 7 7 7 6 6 6 6 6 5 5 4 5 5 6 7 7
12 11 7 4 2 5 8 4 4 4 4 4 4 4 9 11 10 10 10 10 10 10 9 8 8 8 8 8 7 7 7 7 7 6 6 6 5 4 4 5 6 6 7 7
12 12 6 5 1 2 5 6 6 6 6 6 8 10 11 11 11 10 10 10 10 9 9 8 8 8 9 9 8 8 8 8 7 6 6 6 5 5 5 4 5 5 5 6
4 2 5 7 8 7 6 6 6 6 6 6 8 10 11 10 10 10 9 9 9 10 10 8 8 8 9 9 8 8 8 8 7 7 6 5 5 4 3 3 3 4 4 5
2 5 7 8 8 6 5 6 5 5 5 5 6 8 10 10 9 9 8 8 8 10 10 8 8 8 8 9 8 8 8 8 7 7 7 6 5 5 4 4 3 4 4 4
3 3 5 6 7 4 4 5 5 5 5 4 6 8 9 9 8 8 7 7 8 8 9 9 9 9 9 8 9 9 8 7 7 7 8 8 8 7 7 6 4 4 4 4
0 3 2 4 4 3 4 5 5 4 4 4 5 7 9 8 8 8 8 7 8 9 9 9 9 9 8 7 8 8 7 7 6 7 7 7 8 8 13 10 11 12 10 7
3 4 4 2 2 3 3 4 3 3 3 4 4 6 8 8 8 8 8 8 8 9 9 9 9 9 8 7 7 6 6 5 6 6 7 7 7 7 7 6 9 11 10 9
2 2 2 2 2 3 3 3 3 4 4 4 5 6 8 8 8 8 8 8 9 9 9 9 9 8 7 7 6 5 6 5 5 5 5 5 5 6 6 6 5 5 5 5
2 1 1 2 1 1 1 1 2 3 4 5 6 7 8 9 9 8 8 8 9 9 9 9 9 8 7 6 6 5 5 4 3 5 5 5 5 5 5 5 6 6 5 3
3 3 3 3 3 2 2 2 2 3 4 5 6 6 7 8 9 8 8 8 9 9 9 8 8 7 7 7 6 5 4 5 4 4 4 4 4 4 4 5 5 5 4 4
5 5 5 5 4 4 3 3 3 3 4 5 7 7 8 9 9 9 8 8 8 8 8 8 8 7 7 6 6 5 5 5 4 3 4 4 3 4 4 4 4 4 4 4
7 7 6 6 4 4 3 4 4 4 5 6 8 8 9 9 9 9 9 9 9 8 7 7 7 7 6 5 4 5 5 5 4 4 3 3 3 3 3 4 4 5 4 4
7 6 6 5 4 3 3 3 4 5 6 6 7 8 9 9 9 9 10 10 10 9 7 7 8 7 7 5 4 4 5 6 5 4 4 4 3 3 3 4 4 4 4 4
4 4 4 4 3 3 4 4 5 5 6 7 8 9 10 9 9 9 9 7 6 6 8 8 7 6 7 5 3 4 5 6 6 5 4 4 4 3 3 3 4 4 4 4
3 3 3 3 3 3 4 5 5 6 7 8 9 9 10 9 9 8 8 7 7 7 8 8 5 5 5 3 3 3 5 5 5 5 4 4 3 3 3 3 3 3 3 3
2 2 3 3 4 4 4 4 5 7 8 8 9 10 10 10 9 8 7 6 7 7 6 6 5 5 4 3 3 4 4 5 4 4 4 3 3 3 3 3 3 3 3 3
1 2 3 4 4 5 5 5 6 6 8 8 9 9 9 8 7 7 7 6 7 7 5 5 7 7 4 3 3 3 4 4 4 4 4 3 3 3 3 3 2 2 3 3
2 3 3 4 6 6 6 6 7 6 7 7 7 8 8 7 6 5 6 8 7 7 5 6 8 6 4 3 2 3 3 3 3 3 4 4 4 3 3 2 2 3 3 3
3 4 4 5 6 5 6 7 7 8 8 7 8 7 6 5 6 7 8 9 9 7 7 6 6 5 4 3 3 3 3 2 1 1 2 3 4 4 4 3 2 2 2 2
4 4 4 4 4 4 5 5 5 6 6 7 6 6 6 6 7 7 7 9 10 7 7 6 6 5 4 3 3 3 3 3 3 2 2 2 2 3 3 3 3 2 2 2
5 5 4 5 5 4 5 5 5 5 6 6 6 6 7 7 7 7 8 8 7 6 6 5 5 5 4 3 3 3 3 3 2 2 2 2 2 2 2 2 1 1 1 1
Wind_Direction
260 262 242 214 219 227 236 248 254 251 216 176 167 144 138 139 141 139 139 140 137 135 131 129 127 126 123 116 112 112 109 104 99 93 88 84 81 74 67 63 61 54 49 44
250 255 251 237 223 223 228 236 246 255 268 124 127 128 130 138 145 144 144 143 139 137 136 134 133 132 124 116 113 111 107 103 99 94 88 85 87 84 77 71 65 59 53 50
245 245 248 239 230 230 230 228 234 241 218 155 132 136 138 141 143 154 149 146 142 141 139 137 135 131 129 125 122 114 107 102 96 93 86 76 77 77 72 68 67 66 62 61
249 247 243 243 231 232 237 240 238 221 156 126 124 122 125 135 143 147 144 142 140 139 136 136 134 129 127 127 125 119 111 103 98 95 89 80 76 74 71 71 69 69 67 65
242 239 236 237 222 226 221 213 241 167 128 120 126 125 122 129 135 132 129 132 137 141 139 136 138 136 132 128 124 118 112 106 101 98 93 87 85 81 77 78 78 76 72 68
244 246 241 237 230 234 221 190 138 105 114 126 139 154 135 127 125 123 124 127 131 132 129 130 132 135 133 126 119 115 110 103 98 95 94 90 85 84 85 83 84 81 73 66
243 248 247 323 242 218 221 153 89 84 92 100 91 77 113 119 118 119 122 123 123 123 124 122 126 128 123 117 112 111 108 104 99 98 98 92 87 83 87 92 91 87 82 72
231 244 238 4 108 90 72 74 76 79 84 91 95 103 114 117 117 118 123 125 122 119 118 120 122 123 120 116 114 112 109 103 97 91 91 92 87 87 87 93 98 94 89 80
218 204 76 58 76 79 77 75 70 75 85 93 110 117 120 122 124 126 126 127 127 126 122 122 122 123 124 121 121 118 114 108 101 94 85 86 92 94 97 98 101 101 96 88
112 115 101 89 84 72 68 72 65 76 91 104 114 122 127 127 128 129 129 130 130 131 129 123 120 118 119 125 126 124 119 114 111 106 95 76 64 65 62 48 65 83 87 92
158 130 100 92 83 75 71 73 65 71 85 98 115 127 133 135 134 131 130 130 131 132 128 125 120 118 122 126 131 128 126 124 119 108 100 83 68 51 61 50 39 64 72 71
170 59 69 86 78 80 71 71 64 69 79 91 114 128 137 138 137 137 136 134 132 130 128 128 126 125 127 131 134 135 135 136 133 127 121 114 105 86 55 61 59 63 67 80
46 46 52 55 34 47 59 63 61 79 96 104 112 126 136 138 140 139 138 138 136 133 131 131 130 129 133 137 140 142 142 142 136 133 135 133 132 126 114 80 63 64 66 73
60 35 15 352 25 28 44 60 74 94 98 106 116 124 132 136 137 139 141 141 137 135 135 135 133 133 135 136 138 140 138 131 132 134 137 137 140 140 140 138 125 102 79 77
312 321 265 296 358 340 34 94 107 118 125 124 124 130 135 137 138 137 137 138 136 136 138 137 133 133 134 135 137 138 137 137 134 132 135 134 137 137 135 134 129 130 131 122
284 266 249 248 256 255 235 181 154 145 142 135 133 131 131 132 131 132 135 139 141 140 138 136 133 133 134 135 135 125 112 112 120 135 137 136 139 137 130 129 130 133 135 134
259 250 248 242 234 230 225 208 177 159 148 144 137 133 132 132 131 130 130 129 126 126 130 133 134 135 136 141 145 136 133 131 140 149 131 126 125 125 129 137 133 126 120 117
258 251 247 248 244 226 204 186 170 160 154 145 139 138 140 141 141 138 133 128 124 120 122 128 129 129 134 142 144 141 143 146 147 137 123 116 122 134 137 131 128 124 127 137
251 247 241 238 231 213 183 159 154 148 149 149 145 142 138 135 135 136 136 136 136 135 133 132 134 140 139 134 133 137 142 139 133 124 118 128 147 142 138 142 141 143 142 138
245 237 230 221 205 178 152 143 142 141 139 139 136 132 133 134 134 135 134 130 131 132 136 139 145 142 141 137 142 146 142 140 142 142 147 157 157 150 150 151 146 142 143 141
239 220 209 193 173 155 152 151 145 144 140 140 138 138 138 137 136 135 134 125 119 120 126 131 136 133 131 136 172 157 144 145 150 153 159 159 154 155 154 149 143 137 134 137
232 205 182 165 156 149 143 140 143 143 140 142 141 138 136 135 133 127 121 125 129 133 141 140 131 119 121 148 164 158 150 155 160 157 153 150 153 160 159 149 141 138 139 139
195 169 157 147 144 138 133 134 138 137 139 141 141 141 140 137 138 135 130 130 135 142 141 126 124 125 136 183 176 161 157 160 158 153 152 159 168 163 151 149 145 142 141 151
104 116 125 130 130 134 136 135 131 129 129 129 128 131 133 130 125 122 121 123 124 133 123 124 134 142 178 196 176 164 151 150 158 168 169 169 164 152 148 154 162 164 169 177
117 120 122 127 127 129 133 132 129 129 128 122 123 126 128 130 132 131 132 133 137 138 132 138 148 160 187 183 173 155 138 136 144 173 165 161 161 157 159 170 188 186 185 184
121 119 118 119 118 121 128 129 128 130 128 127 127 126 122 120 124 129 135 142 145 150 146 150 164 180 191 178 171 163 159 163 180 181 151 161 168 159 158 172 186 194 198 192
113 113 115 111 109 112 113 115 120 122 122 127 127 125 125 129 133 136 137 143 149 153 150 157 164 174 179 179 181 179 167 163 170 164 165 181 175 161 156 171 182 180 206 192